Regional Weather Roundup
Issued by NWS Little Rock, AR

Home | Current Version | Previous Version | Graphics & Text | Print | Product List | Glossary On
Versions: 1 2 3 4 5 6 7 8 9 10 11 12 13 14 15 16 17 18 19 20 21 22 23 24 25 26 27 28 29 30 31 32 33 34 35 36 37 38 39 40 41 42 43 44 45 46 47
000
ASUS44 KLZK 041605
RWRLZK

WEATHER ROUNDUP FOR ARKANSAS
NATIONAL WEATHER SERVICE LITTLE ROCK AR
1100 AM CDT SAT JUL 04 2015

NOTE: "FAIR" INDICATES FEW OR NO CLOUDS BELOW 12,000 FEET WITH NO
SIGNIFICANT WEATHER AND/OR OBSTRUCTIONS TO VISIBILITY.

ARZ001-003-010-029-041700-
NORTHWEST ARKANSAS

CITY           SKY/WX    TMP DP  RH WIND       PRES   REMARKS
FAYETTEVILLE   PTSUNNY   76  70  82 SE3       30.01S
FORT SMITH     MOSUNNY   80  69  69 NE6       29.97F
HARRISON       PTSUNNY   76  69  79 VRB5      30.03S
BENTONVILLE    MOSUNNY   79  66  65 E3        30.02F
ROGERS         PTSUNNY   78  68  71 E9        30.02S
SILOAM SPGS    MOSUNNY   77  66  69 SE6         N/A
HIGHFILL       PTSUNNY   79  71  76 MISG      30.01S
SPRINGDALE     PTSUNNY   77  70  78 E9        30.03F
$$

ARZ004-005-016-041700-
NORTH CENTRAL ARKANSAS

CITY           SKY/WX    TMP DP  RH WIND       PRES   REMARKS
BATESVILLE     CLOUDY    72  70  94 CALM      30.00S
FLIPPIN        PTSUNNY   75  70  83 E3        29.99S
MTN HOME       PTSUNNY   76  69  79 E3        30.00F
$$

ARZ040-041-041700-
WEST CENTRAL ARKANSAS

CITY           SKY/WX    TMP DP  RH WIND       PRES   REMARKS
MENA           PTSUNNY   77  72  83 CALM      30.01S
MOUNT IDA      PTSUNNY   75  70  84 VRB5      29.98F
$$

ARZ009-017-025-026-028-041700-
NORTHEAST ARKANSAS

CITY           SKY/WX    TMP DP  RH WIND       PRES   REMARKS
JONESBORO      CLOUDY    74  72  93 E3        29.98F
NEWPORT        CLOUDY    75  71  87 CALM      30.00S
WALNUT RIDGE   CLOUDY    75  70  83 E6        29.99S
BLYTHEVILLE    CLOUDY    77  72  84 SW3       30.00S
$$

ARZ022-023-033-042-044-041700-
CENTRAL ARKANSAS

CITY           SKY/WX    TMP DP  RH WIND       PRES   REMARKS
LITTLE ROCK    CLOUDY    75  69  81 SW5       30.00R
N LITTLE ROCK  PTSUNNY   74  71  93 NW2       30.00R
JACKSONVILLE   CLOUDY    75  71  86 W3        29.99R
SEARCY         CLOUDY    74  70  87 W3        30.00S
HOT SPRINGS    CLOUDY    74  70  87 SW7       30.01R
RUSSELLVILLE   CLOUDY    76  70  82 CALM      29.99R
$$

ARZ036-041700-
EAST ARKANSAS

CITY           SKY/WX    TMP DP  RH WIND       PRES   REMARKS
WEST MEMPHIS   CLOUDY    74  72  93 S3        29.98S
$$

ARZ050-053-066-070-073-041700-
SOUTHWEST ARKANSAS

CITY           SKY/WX    TMP DP  RH WIND       PRES   REMARKS
ARKADELPHIA    FAIR      71  71 100 S8        30.00S
CAMDEN         HVY RAIN  68  66  94 MISG      30.00F
TEXARKANA      LGT RAIN  70  68  93 E9G17     30.02S
EL DORADO      CLOUDY    70  68  93 S8        30.05S
DE QUEEN       CLOUDY    72  70  93 SE7       29.99S
$$

ARZ056-057-069-041700-
SOUTHEAST ARKANSAS

CITY           SKY/WX    TMP DP  RH WIND       PRES   REMARKS
PINE BLUFF     CLOUDY    72  69  90 S8        30.01R
STUTTGART      CLOUDY    73  70  88 W9        29.97S
MONTICELLO     LGT RAIN  70  69  97 S7        30.02R

$$




USA.gov is the U.S. government's official web portal to all federal, state and local government web resources and services.